GEFSSE_prec_meanprecacc_282.txt.gz
Total_Precipitation_Accumulation
2.28 2.40 2.61 1.98 1.64 1.49 1.42 1.44 1.41 1.28 1.25 1.30 1.33 1.36 1.38 1.47 1.54 1.63 1.69 1.76 1.96 2.25 2.48 2.70 2.83 2.90 2.96 2.92 2.73 2.52 2.34 2.30 2.31 2.33 2.30 2.17 2.07 2.25 2.50 2.60 2.45 1.73 1.83
1.83 2.01 2.18 1.78 1.46 1.31 1.31 1.45 1.37 1.22 1.15 1.20 1.19 1.21 1.32 1.47 1.51 1.56 1.63 1.85 2.09 2.30 2.44 2.57 2.63 2.68 2.63 2.46 2.29 2.15 2.15 2.31 2.47 2.56 2.45 2.21 2.21 2.28 2.47 2.47 2.42 1.74 1.80
1.29 1.53 1.55 1.54 1.35 1.23 1.24 1.32 1.24 1.13 1.07 1.18 1.22 1.32 1.46 1.58 1.55 1.51 1.66 1.92 2.16 2.30 2.39 2.47 2.46 2.46 2.34 2.16 2.02 1.93 2.20 2.42 2.52 2.76 2.82 2.04 1.96 2.34 2.52 2.39 2.01 1.66 1.67
0.95 1.13 1.14 1.24 1.20 1.08 0.99 1.05 1.11 1.03 1.06 1.16 1.31 1.52 1.67 1.83 1.82 1.82 1.91 2.04 2.23 2.29 2.30 2.29 2.26 2.18 2.11 1.99 1.89 1.96 2.07 2.33 2.53 2.94 2.62 1.75 1.47 2.01 2.37 2.09 1.82 1.72 1.66
0.85 0.93 1.05 0.98 0.90 0.95 0.93 0.93 1.03 1.08 1.11 1.11 1.26 1.46 1.68 1.99 2.07 2.17 2.26 2.37 2.40 2.25 2.13 2.09 2.07 1.91 1.90 1.86 1.89 2.02 2.10 2.45 2.70 2.56 2.02 1.82 1.76 1.95 2.12 2.13 2.04 1.93 1.77
0.72 0.75 0.79 0.91 0.89 0.92 0.97 0.92 0.96 1.06 1.14 1.19 1.28 1.49 1.69 1.99 2.23 2.44 2.42 2.43 2.36 2.13 2.04 1.96 1.87 1.79 1.85 1.90 2.04 2.04 2.11 2.51 2.43 1.70 1.61 1.60 1.65 1.96 1.98 2.20 2.21 2.11 1.98
0.63 0.70 0.74 0.84 0.88 0.89 0.88 0.93 0.97 0.98 1.14 1.22 1.23 1.40 1.62 1.87 2.25 2.36 2.31 2.22 2.07 1.97 1.91 1.87 1.81 1.73 1.75 1.82 2.04 2.02 2.12 2.29 1.80 1.30 1.56 1.69 1.53 1.62 1.84 2.14 2.23 2.13 1.89
0.70 0.62 0.76 0.88 0.89 0.84 0.79 0.85 0.91 1.00 1.13 1.24 1.26 1.36 1.53 1.74 1.99 2.04 2.00 1.92 1.79 1.81 1.78 1.76 1.76 1.63 1.55 1.68 1.82 1.84 1.99 1.82 1.34 1.21 1.35 1.35 1.31 1.44 1.76 2.03 2.11 2.11 1.88
0.91 0.79 0.82 0.83 0.79 0.78 0.82 0.86 0.98 1.15 1.28 1.34 1.34 1.42 1.65 1.77 1.82 1.73 1.78 1.75 1.71 1.69 1.69 1.60 1.51 1.41 1.34 1.45 1.54 1.59 1.77 1.74 1.40 1.35 1.15 1.23 1.46 1.61 1.87 2.06 2.02 1.95 1.87
1.20 1.05 0.93 0.89 0.88 0.80 0.82 1.00 1.11 1.26 1.45 1.53 1.53 1.66 1.87 1.92 1.82 1.83 1.75 1.78 1.78 1.81 1.75 1.60 1.43 1.34 1.32 1.38 1.40 1.50 1.66 1.43 1.22 1.21 1.22 1.25 1.56 1.74 1.93 2.02 1.99 1.89 1.85
1.65 1.30 1.12 1.01 1.04 1.06 0.95 1.01 1.24 1.40 1.56 1.66 1.91 2.13 2.27 2.18 1.96 2.12 1.97 2.11 2.09 2.08 2.01 1.87 1.71 1.61 1.47 1.42 1.61 1.79 1.50 1.25 1.37 1.46 1.43 1.47 1.62 1.84 2.08 2.09 2.05 1.99 1.93
1.87 1.42 1.30 1.14 1.07 1.11 1.23 1.49 1.67 1.53 1.73 2.02 2.35 2.51 2.69 2.58 2.45 2.09 2.33 2.60 2.74 2.86 2.73 2.55 2.39 2.03 1.63 1.49 2.05 2.25 1.44 1.30 1.42 1.58 1.57 1.62 1.83 2.11 2.27 2.16 2.03 1.96 1.89
1.73 1.49 1.42 1.43 1.45 1.33 1.46 1.69 1.89 1.93 2.12 2.28 2.38 2.54 2.70 2.40 2.32 2.36 2.60 2.89 3.03 3.12 2.95 2.93 2.86 2.42 2.19 2.14 2.37 2.28 1.71 1.63 1.62 1.62 1.77 1.89 2.01 2.26 2.56 2.41 2.23 2.16 2.01
2.19 1.95 1.79 1.83 1.78 1.72 1.70 1.87 2.00 2.04 2.14 2.29 2.44 2.42 2.52 2.62 2.67 2.77 3.04 2.98 3.08 3.21 3.50 3.12 3.22 2.97 2.69 2.50 2.48 2.36 2.02 1.99 2.00 2.04 2.28 2.05 1.97 2.32 2.77 2.75 2.56 2.33 2.13
2.74 2.70 2.44 2.21 2.08 2.07 2.20 2.21 2.11 2.20 2.33 2.44 2.61 2.60 2.57 2.82 2.96 3.02 3.03 3.16 2.93 3.00 3.39 3.48 3.19 3.31 3.31 3.04 2.79 2.54 2.46 2.28 2.21 2.22 2.30 2.26 2.20 2.34 2.69 2.91 2.79 2.64 2.39
2.93 3.02 2.81 2.65 2.53 2.51 2.73 2.78 2.65 2.47 2.68 2.75 2.74 2.68 2.75 2.97 3.29 3.41 3.33 3.42 3.19 2.99 3.18 3.29 3.23 3.80 3.65 3.46 2.96 2.65 2.61 2.57 2.39 2.37 2.44 2.55 2.32 2.18 2.39 2.86 3.06 2.97 2.80
3.27 3.19 3.15 3.13 3.05 3.12 3.19 3.09 2.86 2.78 2.70 2.79 2.87 2.95 2.95 2.97 3.29 3.46 3.63 3.60 3.39 3.15 3.26 3.29 3.46 3.68 3.41 3.27 2.96 2.74 2.65 2.61 2.41 2.37 2.63 2.86 2.58 2.43 2.40 2.60 2.94 3.15 3.23
3.62 3.62 3.62 3.45 3.52 3.63 3.65 3.48 3.27 3.13 2.98 2.83 2.79 2.96 2.99 3.04 3.25 3.46 3.40 3.36 3.49 3.43 3.54 3.72 3.76 3.74 3.60 3.44 3.19 2.81 2.63 2.68 2.24 2.17 2.32 2.51 2.65 2.42 2.58 2.83 3.03 3.09 3.35
4.13 4.30 4.33 4.25 4.09 3.96 3.89 3.83 3.85 3.82 3.58 3.26 3.11 3.13 3.12 2.97 3.07 3.35 3.34 3.45 3.56 3.57 3.58 3.26 3.71 3.68 3.72 3.53 2.91 2.71 2.43 2.43 2.33 2.06 2.08 2.04 2.22 2.29 2.34 2.47 2.71 2.78 3.27
4.43 4.94 4.91 4.74 4.66 4.62 4.52 4.28 4.28 4.05 3.77 3.64 3.54 3.64 3.43 3.24 3.18 3.42 3.40 3.51 3.55 3.65 3.65 3.57 3.82 3.73 3.55 3.47 2.74 2.57 2.36 2.02 2.03 2.06 1.92 1.91 2.02 1.93 2.08 2.33 2.59 2.29 2.72
4.73 5.19 5.44 5.46 5.28 5.00 4.62 4.25 4.07 4.00 3.97 3.82 3.66 3.46 3.32 3.23 3.30 3.64 3.51 3.81 3.71 3.51 3.47 3.53 3.78 3.65 3.37 3.40 3.38 2.87 2.24 1.88 1.90 1.80 1.93 2.07 1.93 1.94 2.16 2.50 2.63 2.49 2.24
4.34 4.78 4.95 4.71 4.61 4.45 4.21 4.11 4.07 4.27 4.00 3.79 3.68 3.49 3.19 3.13 3.23 3.27 3.56 3.47 3.49 3.59 3.49 3.49 3.73 3.55 3.11 3.23 3.50 3.47 2.74 2.45 1.95 1.51 1.78 1.93 2.01 2.23 2.30 2.32 2.66 2.83 2.57
3.31 3.58 3.75 3.91 3.85 3.74 3.73 3.70 3.73 3.97 3.81 3.67 3.57 3.47 3.08 2.88 2.85 2.98 3.07 3.16 3.49 3.42 3.46 3.53 3.48 3.42 3.13 3.05 3.20 3.48 3.05 2.63 2.12 1.57 1.50 1.79 2.17 2.35 2.32 2.42 2.52 2.74 2.82
2.96 3.16 3.21 3.23 3.35 3.38 3.46 3.37 3.20 3.15 3.15 3.15 3.22 3.15 3.06 2.87 2.75 2.78 2.84 2.90 3.01 2.93 3.08 2.82 2.97 3.24 3.37 3.08 3.16 3.06 2.94 2.82 2.68 2.15 1.78 1.78 2.05 2.22 2.39 2.36 2.47 2.62 2.89
2.37 2.61 2.73 2.82 2.91 3.06 3.12 3.06 3.03 2.87 2.90 2.97 3.03 3.03 2.97 2.89 2.83 2.80 2.79 2.80 2.73 2.59 2.71 2.72 2.94 2.97 2.98 2.96 3.03 3.09 3.13 3.03 2.81 2.68 2.39 2.27 2.17 1.94 2.01 2.16 2.37 2.51 2.76
2.10 2.30 2.40 2.52 2.57 2.69 2.75 2.82 2.86 2.84 2.81 2.81 2.84 2.84 2.82 2.81 2.69 2.63 2.60 2.63 2.56 2.52 2.59 2.68 2.81 2.73 2.76 2.91 2.94 2.94 3.06 3.03 3.05 3.07 2.61 2.42 2.24 1.83 1.79 1.78 1.98 2.19 2.55

GEFSSE_prec_meanprecacc_288.txt.gz
Total_Precipitation_Accumulation
2.30 2.44 2.69 2.07 1.70 1.54 1.47 1.51 1.48 1.35 1.33 1.36 1.38 1.42 1.45 1.56 1.63 1.73 1.80 1.87 2.05 2.35 2.59 2.81 2.92 2.97 3.06 3.04 2.85 2.66 2.53 2.51 2.56 2.51 2.46 2.29 2.14 2.31 2.56 2.65 2.50 1.78 1.87
1.85 2.05 2.25 1.84 1.50 1.36 1.36 1.51 1.45 1.29 1.20 1.26 1.25 1.28 1.40 1.56 1.59 1.67 1.75 1.98 2.20 2.43 2.59 2.68 2.72 2.75 2.73 2.58 2.39 2.26 2.29 2.54 2.76 2.72 2.58 2.33 2.32 2.36 2.54 2.53 2.47 1.80 1.85
1.31 1.56 1.61 1.61 1.41 1.29 1.30 1.39 1.31 1.20 1.15 1.25 1.31 1.44 1.56 1.68 1.64 1.62 1.78 2.05 2.28 2.42 2.52 2.59 2.56 2.55 2.45 2.30 2.16 2.03 2.32 2.63 2.71 2.90 2.93 2.13 2.04 2.42 2.58 2.45 2.08 1.73 1.74
0.96 1.17 1.19 1.32 1.29 1.18 1.08 1.15 1.22 1.13 1.14 1.23 1.43 1.66 1.79 1.91 1.89 1.91 2.05 2.19 2.36 2.39 2.41 2.40 2.37 2.30 2.24 2.14 2.01 2.06 2.16 2.44 2.65 3.07 2.71 1.82 1.53 2.07 2.44 2.15 1.88 1.80 1.75
0.87 0.96 1.11 1.07 0.98 1.04 1.05 1.08 1.19 1.22 1.20 1.21 1.39 1.59 1.81 2.10 2.17 2.29 2.38 2.49 2.52 2.37 2.25 2.21 2.19 2.04 2.01 1.97 2.00 2.12 2.22 2.56 2.84 2.69 2.09 1.91 1.83 2.02 2.17 2.18 2.12 2.08 1.93
0.74 0.77 0.85 1.01 0.96 0.98 1.03 1.02 1.05 1.17 1.26 1.33 1.41 1.60 1.81 2.13 2.38 2.59 2.56 2.56 2.48 2.27 2.18 2.09 2.00 1.91 1.96 2.01 2.15 2.15 2.23 2.64 2.58 1.82 1.70 1.71 1.74 2.04 2.03 2.25 2.27 2.22 2.11
0.64 0.72 0.78 0.91 0.95 0.95 0.94 1.00 1.03 1.05 1.24 1.36 1.38 1.53 1.74 1.99 2.38 2.49 2.46 2.37 2.19 2.10 2.05 2.02 1.97 1.89 1.90 1.97 2.19 2.15 2.26 2.44 1.97 1.45 1.68 1.82 1.64 1.71 1.91 2.20 2.28 2.19 1.98
0.71 0.64 0.80 0.91 0.93 0.89 0.85 0.91 0.96 1.05 1.21 1.37 1.41 1.48 1.64 1.86 2.11 2.16 2.13 2.07 1.93 1.97 1.96 1.94 1.93 1.82 1.73 1.90 2.05 2.05 2.17 2.00 1.53 1.37 1.48 1.48 1.42 1.55 1.84 2.10 2.17 2.18 1.96
0.93 0.82 0.85 0.85 0.81 0.82 0.89 0.92 1.02 1.19 1.35 1.46 1.49 1.53 1.75 1.88 1.94 1.84 1.89 1.88 1.85 1.88 1.88 1.78 1.70 1.61 1.55 1.73 1.85 1.88 2.03 1.99 1.60 1.53 1.28 1.34 1.57 1.71 1.95 2.14 2.09 2.05 2.01
1.21 1.07 0.95 0.91 0.91 0.83 0.87 1.06 1.17 1.32 1.51 1.61 1.65 1.78 1.96 2.01 1.92 1.93 1.85 1.91 1.93 2.01 1.96 1.86 1.70 1.60 1.60 1.67 1.69 1.80 1.95 1.68 1.42 1.37 1.35 1.35 1.68 1.84 2.03 2.12 2.09 1.99 1.96
1.67 1.32 1.15 1.04 1.07 1.09 0.98 1.06 1.31 1.47 1.62 1.74 2.02 2.27 2.38 2.30 2.11 2.27 2.11 2.26 2.26 2.27 2.23 2.18 2.07 1.92 1.78 1.67 1.83 2.04 1.73 1.46 1.56 1.61 1.55 1.58 1.72 1.93 2.18 2.20 2.14 2.09 2.03
1.89 1.45 1.33 1.17 1.10 1.14 1.26 1.55 1.73 1.59 1.80 2.11 2.43 2.64 2.82 2.71 2.59 2.24 2.49 2.78 2.93 3.07 2.97 2.84 2.68 2.26 1.84 1.69 2.23 2.41 1.60 1.44 1.57 1.72 1.69 1.73 1.92 2.20 2.36 2.25 2.12 2.05 1.99
1.75 1.52 1.46 1.47 1.48 1.36 1.51 1.74 1.95 1.99 2.18 2.35 2.47 2.67 2.85 2.53 2.45 2.50 2.76 3.08 3.23 3.30 3.13 3.14 3.06 2.60 2.34 2.27 2.49 2.39 1.81 1.74 1.73 1.73 1.89 1.99 2.10 2.36 2.65 2.50 2.31 2.24 2.11
2.23 2.00 1.85 1.88 1.82 1.76 1.74 1.92 2.08 2.12 2.20 2.35 2.52 2.51 2.62 2.73 2.80 2.90 3.18 3.16 3.27 3.36 3.66 3.28 3.40 3.13 2.79 2.59 2.57 2.42 2.09 2.07 2.08 2.14 2.39 2.15 2.05 2.42 2.86 2.86 2.66 2.44 2.25
2.80 2.78 2.52 2.27 2.13 2.13 2.26 2.28 2.18 2.28 2.39 2.50 2.67 2.65 2.64 2.91 3.07 3.15 3.17 3.31 3.07 3.11 3.52 3.64 3.36 3.45 3.40 3.12 2.86 2.61 2.53 2.34 2.28 2.31 2.40 2.35 2.26 2.41 2.80 3.02 2.89 2.77 2.52
2.98 3.08 2.86 2.69 2.56 2.56 2.80 2.88 2.74 2.54 2.76 2.80 2.78 2.73 2.81 3.05 3.40 3.57 3.46 3.54 3.30 3.09 3.29 3.48 3.39 3.96 3.75 3.54 3.04 2.72 2.68 2.65 2.47 2.45 2.52 2.61 2.38 2.25 2.47 2.95 3.14 3.05 2.88
3.30 3.22 3.19 3.15 3.07 3.17 3.27 3.19 2.94 2.86 2.76 2.83 2.91 3.00 3.01 3.03 3.39 3.62 3.81 3.74 3.49 3.24 3.39 3.44 3.62 3.86 3.57 3.37 3.05 2.82 2.73 2.67 2.46 2.42 2.68 2.91 2.62 2.48 2.46 2.67 3.03 3.23 3.33
3.64 3.64 3.65 3.47 3.54 3.68 3.73 3.57 3.35 3.20 3.04 2.87 2.83 3.02 3.06 3.12 3.37 3.59 3.56 3.48 3.59 3.51 3.66 3.87 3.93 3.92 3.76 3.58 3.28 2.89 2.70 2.73 2.27 2.19 2.34 2.53 2.67 2.46 2.63 2.89 3.10 3.17 3.44
4.15 4.32 4.35 4.27 4.14 4.07 4.01 3.90 3.91 3.87 3.63 3.30 3.14 3.17 3.17 3.04 3.14 3.42 3.44 3.56 3.66 3.67 3.70 3.40 3.89 3.84 3.86 3.66 3.01 2.78 2.49 2.47 2.35 2.07 2.09 2.05 2.24 2.32 2.37 2.50 2.77 2.85 3.34
4.45 4.96 4.93 4.77 4.73 4.73 4.66 4.34 4.33 4.09 3.80 3.66 3.56 3.66 3.46 3.27 3.22 3.46 3.46 3.57 3.61 3.72 3.77 3.71 3.95 3.86 3.67 3.59 2.82 2.63 2.41 2.06 2.06 2.09 1.94 1.93 2.04 1.95 2.10 2.35 2.64 2.34 2.77
4.74 5.22 5.45 5.48 5.32 5.06 4.69 4.28 4.10 4.04 4.00 3.84 3.68 3.47 3.34 3.27 3.34 3.69 3.56 3.87 3.78 3.57 3.55 3.62 3.85 3.73 3.45 3.47 3.45 2.93 2.31 1.93 1.96 1.86 1.97 2.09 1.95 1.96 2.19 2.55 2.68 2.54 2.28
4.35 4.80 4.97 4.73 4.63 4.48 4.25 4.14 4.11 4.31 4.03 3.82 3.69 3.50 3.21 3.15 3.26 3.29 3.60 3.51 3.54 3.65 3.53 3.53 3.77 3.60 3.16 3.28 3.56 3.55 2.82 2.52 2.02 1.56 1.82 1.97 2.05 2.27 2.34 2.35 2.70 2.87 2.59
3.32 3.60 3.80 3.94 3.87 3.77 3.75 3.73 3.76 4.00 3.83 3.69 3.59 3.48 3.09 2.89 2.86 2.99 3.09 3.19 3.53 3.45 3.49 3.56 3.52 3.45 3.17 3.10 3.26 3.56 3.14 2.71 2.19 1.63 1.55 1.84 2.22 2.41 2.36 2.44 2.55 2.77 2.85
2.96 3.16 3.24 3.27 3.37 3.39 3.47 3.38 3.22 3.17 3.17 3.17 3.24 3.17 3.08 2.88 2.76 2.79 2.86 2.92 3.03 2.94 3.10 2.84 2.99 3.27 3.40 3.11 3.21 3.12 3.02 2.89 2.77 2.21 1.82 1.82 2.09 2.25 2.43 2.39 2.50 2.65 2.92
2.37 2.61 2.74 2.84 2.94 3.08 3.14 3.09 3.06 2.88 2.91 2.99 3.05 3.05 2.99 2.92 2.85 2.81 2.80 2.82 2.74 2.61 2.73 2.75 2.97 3.00 3.01 2.99 3.07 3.14 3.20 3.11 2.89 2.74 2.43 2.30 2.19 1.95 2.03 2.20 2.40 2.55 2.79
2.10 2.30 2.40 2.52 2.57 2.69 2.75 2.85 2.91 2.88 2.84 2.84 2.86 2.86 2.84 2.84 2.72 2.64 2.61 2.66 2.59 2.55 2.62 2.71 2.84 2.77 2.81 2.96 2.99 3.00 3.13 3.12 3.13 3.13 2.65 2.45 2.28 1.85 1.81 1.81 2.00 2.22 2.58

GEFSSE_prec_meanprecacc_294.txt.gz
Total_Precipitation_Accumulation
2.37 2.50 2.75 2.17 1.78 1.59 1.52 1.56 1.54 1.40 1.37 1.41 1.45 1.50 1.52 1.62 1.68 1.81 1.89 1.94 2.12 2.43 2.68 2.90 3.01 3.06 3.15 3.13 2.95 2.77 2.66 2.70 2.83 2.73 2.60 2.39 2.24 2.40 2.63 2.73 2.59 1.85 1.92
1.90 2.10 2.30 1.92 1.58 1.42 1.41 1.56 1.50 1.35 1.26 1.30 1.30 1.34 1.46 1.62 1.66 1.75 1.84 2.07 2.29 2.53 2.68 2.78 2.82 2.84 2.83 2.68 2.49 2.36 2.41 2.68 2.97 2.90 2.73 2.41 2.40 2.45 2.64 2.64 2.58 1.88 1.91
1.34 1.60 1.64 1.65 1.48 1.36 1.37 1.44 1.36 1.27 1.24 1.33 1.39 1.50 1.62 1.75 1.71 1.70 1.87 2.14 2.37 2.52 2.64 2.71 2.66 2.64 2.54 2.39 2.27 2.15 2.45 2.84 2.91 3.02 3.04 2.20 2.12 2.53 2.69 2.55 2.17 1.79 1.80
0.99 1.20 1.22 1.35 1.33 1.24 1.14 1.21 1.28 1.20 1.22 1.29 1.50 1.74 1.86 1.98 1.96 1.97 2.13 2.29 2.46 2.48 2.50 2.50 2.48 2.39 2.33 2.23 2.13 2.17 2.31 2.70 2.84 3.19 2.80 1.87 1.60 2.19 2.56 2.26 1.98 1.88 1.82
0.91 1.00 1.14 1.09 1.03 1.11 1.11 1.13 1.24 1.30 1.29 1.27 1.46 1.69 1.91 2.19 2.25 2.37 2.48 2.60 2.61 2.45 2.32 2.30 2.30 2.12 2.09 2.04 2.09 2.23 2.35 2.75 3.01 2.81 2.17 1.98 1.93 2.15 2.26 2.25 2.18 2.16 2.01
0.77 0.80 0.87 1.04 1.00 1.04 1.08 1.06 1.10 1.25 1.36 1.44 1.57 1.77 1.94 2.23 2.46 2.68 2.66 2.66 2.56 2.35 2.28 2.19 2.09 1.99 2.04 2.10 2.27 2.27 2.33 2.77 2.70 1.95 1.81 1.84 1.86 2.13 2.09 2.29 2.31 2.28 2.18
0.66 0.75 0.79 0.93 0.99 1.00 0.97 1.05 1.09 1.14 1.36 1.52 1.57 1.68 1.86 2.08 2.44 2.56 2.53 2.46 2.29 2.20 2.14 2.09 2.05 1.96 1.98 2.06 2.30 2.26 2.37 2.56 2.08 1.57 1.81 1.96 1.75 1.80 1.97 2.25 2.33 2.24 2.04
0.72 0.66 0.81 0.93 0.96 0.92 0.89 0.97 1.02 1.12 1.31 1.51 1.57 1.64 1.77 1.94 2.17 2.22 2.20 2.16 2.04 2.06 2.03 2.02 2.03 1.91 1.83 2.00 2.13 2.14 2.27 2.10 1.61 1.45 1.58 1.59 1.51 1.63 1.91 2.16 2.22 2.24 2.03
0.94 0.83 0.87 0.88 0.83 0.86 0.94 0.97 1.07 1.26 1.43 1.55 1.59 1.64 1.84 1.96 2.00 1.90 1.96 1.97 1.94 1.97 1.96 1.87 1.81 1.73 1.67 1.83 1.93 1.97 2.13 2.09 1.71 1.64 1.40 1.46 1.67 1.80 2.04 2.20 2.13 2.10 2.07
1.23 1.09 0.98 0.94 0.94 0.87 0.93 1.11 1.21 1.38 1.59 1.70 1.74 1.87 2.04 2.10 2.02 2.01 1.93 1.98 2.01 2.11 2.06 1.96 1.83 1.75 1.75 1.78 1.79 1.91 2.09 1.83 1.56 1.51 1.49 1.47 1.76 1.92 2.11 2.17 2.12 2.03 2.01
1.69 1.35 1.18 1.08 1.11 1.12 1.02 1.11 1.36 1.54 1.70 1.82 2.10 2.36 2.50 2.45 2.26 2.40 2.20 2.35 2.36 2.38 2.36 2.36 2.26 2.10 1.95 1.83 1.99 2.24 1.94 1.63 1.72 1.77 1.72 1.70 1.81 2.03 2.27 2.25 2.17 2.12 2.07
1.91 1.49 1.36 1.20 1.14 1.17 1.30 1.59 1.79 1.66 1.88 2.20 2.54 2.72 2.94 2.86 2.77 2.38 2.61 2.89 3.07 3.24 3.19 3.09 2.93 2.47 2.05 1.89 2.44 2.63 1.79 1.64 1.77 1.90 1.85 1.87 2.04 2.31 2.46 2.31 2.17 2.09 2.02
1.77 1.55 1.48 1.50 1.53 1.41 1.55 1.79 2.01 2.05 2.25 2.45 2.57 2.77 2.95 2.65 2.58 2.65 2.91 3.24 3.41 3.56 3.43 3.39 3.30 2.80 2.51 2.45 2.67 2.59 1.97 1.90 1.90 1.90 2.06 2.14 2.22 2.48 2.75 2.56 2.36 2.27 2.14
2.25 2.02 1.87 1.92 1.89 1.85 1.82 1.99 2.13 2.16 2.26 2.43 2.61 2.61 2.72 2.84 2.92 3.05 3.36 3.33 3.46 3.58 3.91 3.52 3.60 3.30 2.95 2.72 2.71 2.57 2.22 2.22 2.23 2.30 2.55 2.28 2.16 2.52 2.95 2.91 2.70 2.49 2.29
2.84 2.81 2.55 2.31 2.18 2.20 2.36 2.36 2.24 2.34 2.45 2.56 2.75 2.73 2.72 3.00 3.17 3.25 3.31 3.47 3.22 3.27 3.69 3.83 3.56 3.66 3.60 3.25 2.97 2.74 2.65 2.48 2.43 2.45 2.53 2.46 2.34 2.48 2.87 3.07 2.93 2.81 2.57
3.01 3.11 2.88 2.72 2.61 2.64 2.90 2.99 2.82 2.60 2.82 2.87 2.85 2.79 2.86 3.11 3.47 3.65 3.55 3.67 3.45 3.23 3.44 3.63 3.57 4.15 3.97 3.73 3.17 2.86 2.81 2.76 2.58 2.54 2.60 2.69 2.44 2.31 2.54 3.01 3.20 3.11 2.95
3.32 3.25 3.21 3.17 3.10 3.23 3.36 3.30 3.03 2.95 2.83 2.90 2.99 3.06 3.06 3.08 3.47 3.69 3.88 3.83 3.60 3.37 3.54 3.61 3.79 4.03 3.76 3.55 3.20 2.97 2.85 2.79 2.56 2.50 2.75 2.98 2.68 2.54 2.52 2.74 3.09 3.31 3.41
3.67 3.67 3.67 3.48 3.57 3.74 3.82 3.68 3.47 3.33 3.14 2.95 2.90 3.09 3.15 3.23 3.47 3.69 3.65 3.56 3.66 3.59 3.78 4.02 4.10 4.07 3.93 3.74 3.44 3.04 2.81 2.84 2.36 2.27 2.41 2.59 2.72 2.49 2.67 2.94 3.16 3.25 3.52
4.18 4.36 4.38 4.30 4.19 4.13 4.09 4.01 4.04 3.99 3.75 3.40 3.24 3.26 3.29 3.18 3.25 3.51 3.53 3.64 3.73 3.75 3.78 3.47 4.01 4.00 4.03 3.84 3.17 2.92 2.60 2.58 2.45 2.15 2.16 2.10 2.29 2.36 2.41 2.55 2.82 2.91 3.41
4.47 4.98 4.95 4.80 4.79 4.80 4.76 4.46 4.43 4.20 3.91 3.76 3.67 3.77 3.55 3.37 3.29 3.53 3.52 3.64 3.67 3.79 3.83 3.76 4.02 3.97 3.79 3.73 2.99 2.81 2.56 2.19 2.17 2.18 2.01 1.98 2.10 2.00 2.14 2.40 2.71 2.41 2.82
4.75 5.23 5.47 5.51 5.37 5.12 4.83 4.46 4.22 4.13 4.08 3.91 3.73 3.54 3.42 3.34 3.40 3.75 3.62 3.94 3.84 3.64 3.61 3.68 3.94 3.83 3.55 3.58 3.59 3.10 2.48 2.09 2.09 1.97 2.05 2.16 2.00 2.00 2.24 2.61 2.74 2.58 2.30
4.35 4.81 4.99 4.76 4.67 4.53 4.34 4.26 4.21 4.39 4.09 3.86 3.73 3.56 3.27 3.22 3.32 3.35 3.66 3.57 3.60 3.72 3.60 3.60 3.86 3.68 3.25 3.39 3.68 3.67 2.97 2.68 2.17 1.68 1.92 2.03 2.10 2.32 2.39 2.41 2.75 2.90 2.62
3.32 3.60 3.80 3.96 3.89 3.81 3.81 3.79 3.83 4.08 3.91 3.76 3.64 3.54 3.15 2.95 2.92 3.06 3.15 3.25 3.58 3.49 3.55 3.63 3.58 3.51 3.25 3.19 3.35 3.67 3.27 2.83 2.30 1.72 1.63 1.90 2.28 2.47 2.42 2.50 2.61 2.81 2.89
2.96 3.16 3.24 3.28 3.39 3.41 3.50 3.42 3.27 3.23 3.23 3.21 3.28 3.21 3.13 2.94 2.81 2.85 2.90 2.97 3.08 2.98 3.15 2.89 3.04 3.34 3.47 3.17 3.27 3.19 3.10 2.99 2.86 2.30 1.89 1.86 2.13 2.30 2.47 2.44 2.56 2.72 2.99
2.37 2.61 2.74 2.84 2.95 3.10 3.16 3.13 3.11 2.94 2.96 3.03 3.10 3.10 3.04 2.96 2.89 2.85 2.84 2.86 2.79 2.65 2.77 2.80 3.04 3.06 3.07 3.06 3.14 3.21 3.28 3.21 2.99 2.83 2.49 2.35 2.23 1.98 2.07 2.25 2.46 2.61 2.86
2.10 2.30 2.40 2.53 2.58 2.71 2.77 2.87 2.96 2.95 2.90 2.90 2.92 2.91 2.89 2.88 2.76 2.69 2.65 2.70 2.64 2.60 2.68 2.77 2.90 2.82 2.87 3.02 3.07 3.07 3.20 3.19 3.21 3.21 2.71 2.50 2.32 1.88 1.85 1.85 2.05 2.27 2.62

GEFSSE_prec_meanprecacc_300.txt.gz
Total_Precipitation_Accumulation
2.41 2.54 2.82 2.23 1.82 1.63 1.54 1.59 1.59 1.44 1.41 1.47 1.52 1.56 1.57 1.67 1.76 1.89 1.99 2.02 2.17 2.50 2.77 2.97 3.08 3.11 3.19 3.19 3.01 2.85 2.78 2.86 3.01 2.91 2.74 2.48 2.30 2.45 2.68 2.79 2.65 1.89 1.97
1.93 2.13 2.35 1.97 1.61 1.45 1.45 1.59 1.55 1.42 1.32 1.36 1.36 1.41 1.51 1.66 1.71 1.82 1.93 2.14 2.36 2.60 2.76 2.86 2.88 2.89 2.90 2.75 2.56 2.44 2.52 2.82 3.14 3.07 2.84 2.48 2.46 2.50 2.69 2.69 2.62 1.92 1.96
1.36 1.62 1.66 1.68 1.50 1.38 1.40 1.48 1.41 1.33 1.31 1.41 1.46 1.56 1.67 1.80 1.77 1.77 1.93 2.22 2.47 2.61 2.70 2.77 2.72 2.70 2.61 2.48 2.36 2.24 2.56 2.96 3.05 3.15 3.13 2.24 2.16 2.59 2.74 2.59 2.21 1.84 1.84
1.00 1.21 1.23 1.36 1.35 1.26 1.16 1.23 1.32 1.25 1.28 1.37 1.57 1.79 1.92 2.06 2.02 2.03 2.18 2.36 2.56 2.56 2.57 2.56 2.54 2.46 2.41 2.33 2.22 2.30 2.46 2.83 2.99 3.29 2.85 1.92 1.65 2.26 2.63 2.32 2.03 1.94 1.87
0.92 1.00 1.15 1.12 1.05 1.13 1.12 1.15 1.28 1.35 1.36 1.35 1.56 1.80 2.01 2.27 2.31 2.42 2.53 2.65 2.69 2.52 2.38 2.37 2.38 2.19 2.17 2.14 2.19 2.36 2.51 2.90 3.14 2.89 2.22 2.02 1.97 2.21 2.32 2.31 2.23 2.22 2.06
0.78 0.82 0.90 1.06 1.02 1.07 1.10 1.08 1.12 1.29 1.42 1.54 1.69 1.90 2.05 2.32 2.54 2.75 2.72 2.73 2.65 2.44 2.36 2.29 2.19 2.07 2.12 2.18 2.36 2.39 2.48 2.92 2.81 1.99 1.86 1.87 1.88 2.18 2.15 2.36 2.37 2.35 2.25
0.67 0.77 0.82 0.96 1.01 1.02 0.99 1.07 1.13 1.20 1.44 1.64 1.68 1.77 1.95 2.18 2.54 2.66 2.59 2.53 2.38 2.28 2.21 2.17 2.13 2.04 2.06 2.14 2.39 2.37 2.48 2.68 2.15 1.61 1.85 1.99 1.78 1.84 2.02 2.33 2.40 2.31 2.10
0.73 0.67 0.82 0.95 0.98 0.94 0.91 1.00 1.07 1.20 1.42 1.65 1.69 1.73 1.85 2.01 2.24 2.28 2.24 2.21 2.10 2.11 2.08 2.07 2.09 1.98 1.90 2.08 2.23 2.24 2.36 2.21 1.68 1.51 1.62 1.63 1.55 1.68 1.96 2.22 2.28 2.29 2.07
0.94 0.84 0.88 0.89 0.85 0.88 0.98 1.01 1.12 1.34 1.55 1.67 1.69 1.73 1.90 2.02 2.05 1.94 2.00 2.00 1.99 2.02 2.00 1.92 1.87 1.79 1.74 1.91 2.00 2.05 2.24 2.21 1.79 1.71 1.45 1.51 1.73 1.86 2.09 2.25 2.17 2.13 2.09
1.24 1.11 0.99 0.95 0.95 0.89 0.96 1.15 1.27 1.46 1.69 1.82 1.84 1.93 2.10 2.17 2.09 2.08 1.97 2.03 2.08 2.16 2.11 2.04 1.92 1.83 1.84 1.87 1.87 2.00 2.22 1.94 1.63 1.56 1.55 1.52 1.84 1.98 2.16 2.21 2.15 2.06 2.04
1.70 1.37 1.20 1.10 1.12 1.15 1.07 1.17 1.42 1.61 1.77 1.90 2.18 2.42 2.55 2.51 2.32 2.46 2.26 2.42 2.45 2.46 2.45 2.48 2.41 2.23 2.10 1.93 2.10 2.37 2.06 1.70 1.81 1.81 1.77 1.77 1.89 2.09 2.33 2.29 2.21 2.15 2.10
1.93 1.50 1.38 1.23 1.18 1.21 1.35 1.65 1.86 1.73 1.94 2.25 2.59 2.76 2.97 2.89 2.84 2.48 2.72 3.00 3.18 3.35 3.31 3.23 3.09 2.68 2.20 1.99 2.55 2.76 1.87 1.69 1.83 1.95 1.93 1.95 2.10 2.38 2.52 2.36 2.21 2.13 2.06
1.78 1.57 1.50 1.53 1.56 1.44 1.60 1.84 2.07 2.12 2.33 2.49 2.61 2.79 2.98 2.68 2.64 2.74 3.04 3.39 3.57 3.69 3.54 3.55 3.49 2.99 2.66 2.56 2.79 2.71 2.05 1.95 1.95 1.94 2.14 2.23 2.28 2.55 2.81 2.62 2.42 2.31 2.18
2.28 2.04 1.89 1.94 1.93 1.89 1.86 2.02 2.17 2.21 2.30 2.45 2.63 2.62 2.74 2.87 2.95 3.12 3.48 3.46 3.58 3.68 4.01 3.69 3.80 3.50 3.11 2.87 2.85 2.69 2.31 2.29 2.29 2.36 2.63 2.38 2.26 2.62 3.02 2.96 2.75 2.53 2.33
2.86 2.84 2.58 2.35 2.22 2.25 2.41 2.39 2.28 2.38 2.48 2.58 2.77 2.75 2.74 3.02 3.21 3.32 3.41 3.58 3.32 3.36 3.76 3.93 3.71 3.83 3.75 3.44 3.17 2.90 2.77 2.59 2.52 2.54 2.64 2.59 2.47 2.60 2.95 3.12 2.97 2.85 2.61
3.02 3.13 2.91 2.76 2.66 2.70 2.95 3.02 2.85 2.63 2.84 2.89 2.88 2.81 2.88 3.14 3.53 3.73 3.64 3.73 3.51 3.30 3.49 3.69 3.66 4.28 4.10 3.89 3.37 3.05 2.98 2.91 2.75 2.69 2.73 2.82 2.58 2.43 2.61 3.07 3.24 3.15 2.99
3.33 3.26 3.22 3.19 3.14 3.28 3.41 3.34 3.07 2.98 2.86 2.92 3.01 3.08 3.10 3.13 3.52 3.75 3.94 3.89 3.65 3.42 3.60 3.70 3.91 4.17 3.89 3.71 3.38 3.15 3.03 2.98 2.77 2.69 2.90 3.10 2.80 2.65 2.61 2.80 3.16 3.36 3.45
3.68 3.68 3.68 3.49 3.59 3.79 3.86 3.72 3.52 3.38 3.18 2.98 2.93 3.11 3.19 3.28 3.52 3.75 3.71 3.62 3.71 3.64 3.83 4.08 4.20 4.21 4.07 3.91 3.65 3.26 3.00 3.01 2.55 2.44 2.55 2.69 2.81 2.58 2.76 3.03 3.24 3.31 3.57
4.19 4.36 4.39 4.31 4.21 4.18 4.15 4.05 4.08 4.04 3.81 3.46 3.28 3.30 3.35 3.23 3.30 3.57 3.58 3.67 3.76 3.78 3.81 3.50 4.06 4.06 4.10 3.95 3.37 3.16 2.82 2.77 2.61 2.29 2.28 2.18 2.37 2.44 2.49 2.63 2.91 3.01 3.51
4.47 4.99 4.96 4.81 4.82 4.87 4.83 4.52 4.51 4.27 3.98 3.83 3.73 3.84 3.62 3.42 3.33 3.57 3.56 3.67 3.70 3.81 3.85 3.79 4.07 4.01 3.83 3.77 3.06 2.93 2.74 2.39 2.35 2.32 2.12 2.08 2.19 2.08 2.22 2.48 2.79 2.51 2.93
4.75 5.23 5.48 5.52 5.39 5.15 4.86 4.52 4.32 4.25 4.18 4.00 3.79 3.62 3.50 3.40 3.46 3.79 3.67 3.99 3.89 3.69 3.64 3.73 3.99 3.87 3.59 3.61 3.63 3.14 2.53 2.18 2.21 2.07 2.16 2.25 2.09 2.08 2.31 2.69 2.83 2.65 2.36
4.35 4.81 5.00 4.76 4.68 4.54 4.35 4.30 4.29 4.49 4.19 3.95 3.79 3.62 3.35 3.31 3.40 3.41 3.73 3.65 3.68 3.79 3.68 3.67 3.91 3.72 3.29 3.43 3.72 3.72 3.01 2.74 2.26 1.78 2.03 2.13 2.18 2.40 2.48 2.50 2.82 2.96 2.68
3.32 3.60 3.81 3.96 3.89 3.82 3.82 3.82 3.89 4.15 3.98 3.83 3.70 3.59 3.20 3.02 3.00 3.15 3.27 3.36 3.68 3.58 3.62 3.69 3.63 3.56 3.28 3.22 3.40 3.73 3.32 2.87 2.35 1.81 1.74 2.02 2.39 2.57 2.52 2.60 2.69 2.88 2.95
2.96 3.16 3.24 3.29 3.39 3.42 3.50 3.43 3.29 3.25 3.26 3.25 3.32 3.25 3.19 2.99 2.88 2.94 3.04 3.14 3.23 3.08 3.23 2.96 3.09 3.39 3.52 3.22 3.32 3.25 3.17 3.06 2.92 2.36 1.98 1.97 2.25 2.41 2.59 2.56 2.66 2.81 3.06
2.37 2.61 2.74 2.85 2.96 3.11 3.17 3.14 3.13 2.95 2.97 3.05 3.12 3.12 3.07 2.99 2.92 2.89 2.90 2.94 2.91 2.75 2.86 2.85 3.08 3.10 3.12 3.11 3.19 3.26 3.34 3.27 3.05 2.88 2.54 2.41 2.31 2.07 2.14 2.33 2.56 2.72 2.94
2.11 2.30 2.41 2.54 2.60 2.72 2.78 2.89 3.02 3.00 2.92 2.91 2.93 2.92 2.90 2.90 2.79 2.72 2.68 2.74 2.72 2.69 2.74 2.81 2.94 2.86 2.91 3.06 3.11 3.13 3.27 3.25 3.27 3.27 2.76 2.54 2.36 1.92 1.89 1.88 2.09 2.34 2.72

GEFSSE_prec_meanprecacc_306.txt.gz
Total_Precipitation_Accumulation
2.44 2.59 2.95 2.34 1.90 1.68 1.60 1.64 1.65 1.51 1.47 1.52 1.56 1.61 1.64 1.75 1.85 1.98 2.07 2.10 2.24 2.55 2.83 3.06 3.15 3.19 3.28 3.29 3.13 2.96 2.90 3.02 3.14 3.00 2.82 2.56 2.38 2.53 2.76 2.88 2.74 1.96 2.00
1.95 2.18 2.46 2.07 1.69 1.52 1.51 1.67 1.63 1.51 1.41 1.42 1.42 1.46 1.59 1.75 1.81 1.93 2.02 2.21 2.43 2.66 2.81 2.94 2.95 2.95 2.98 2.86 2.69 2.56 2.63 2.95 3.28 3.19 2.94 2.55 2.52 2.57 2.76 2.77 2.71 1.98 2.00
1.39 1.66 1.74 1.76 1.56 1.45 1.46 1.56 1.50 1.41 1.40 1.50 1.54 1.63 1.74 1.88 1.87 1.90 2.03 2.29 2.54 2.68 2.76 2.83 2.78 2.75 2.69 2.58 2.48 2.35 2.66 3.07 3.21 3.29 3.24 2.31 2.22 2.66 2.81 2.68 2.30 1.90 1.89
1.02 1.24 1.29 1.43 1.40 1.32 1.23 1.31 1.41 1.33 1.34 1.44 1.66 1.88 2.03 2.15 2.12 2.14 2.27 2.44 2.65 2.65 2.63 2.61 2.59 2.51 2.48 2.43 2.34 2.44 2.60 2.97 3.13 3.41 2.95 1.95 1.67 2.31 2.69 2.39 2.11 2.01 1.93
0.94 1.02 1.20 1.18 1.11 1.19 1.20 1.25 1.39 1.43 1.40 1.40 1.62 1.87 2.11 2.35 2.40 2.51 2.62 2.73 2.81 2.63 2.48 2.44 2.44 2.25 2.26 2.26 2.33 2.54 2.66 3.05 3.32 3.06 2.28 2.03 1.98 2.24 2.37 2.38 2.30 2.28 2.12
0.80 0.84 0.94 1.12 1.07 1.10 1.14 1.13 1.19 1.34 1.48 1.59 1.76 1.95 2.11 2.39 2.63 2.85 2.82 2.83 2.79 2.59 2.48 2.38 2.27 2.16 2.22 2.30 2.52 2.57 2.66 3.08 2.99 2.13 1.90 1.89 1.90 2.21 2.21 2.45 2.47 2.43 2.30
0.68 0.79 0.89 1.03 1.07 1.08 1.04 1.11 1.17 1.27 1.51 1.70 1.74 1.81 2.00 2.24 2.61 2.75 2.68 2.62 2.48 2.41 2.33 2.28 2.24 2.14 2.16 2.27 2.57 2.54 2.66 2.86 2.29 1.67 1.88 2.01 1.80 1.90 2.09 2.42 2.50 2.41 2.17
0.73 0.70 0.88 1.01 1.05 1.02 0.97 1.04 1.12 1.28 1.50 1.73 1.76 1.78 1.90 2.08 2.32 2.36 2.32 2.29 2.18 2.21 2.18 2.19 2.19 2.07 1.99 2.22 2.39 2.38 2.51 2.36 1.78 1.57 1.65 1.64 1.57 1.74 2.04 2.31 2.35 2.36 2.13
0.96 0.86 0.91 0.92 0.90 0.94 1.04 1.08 1.21 1.45 1.66 1.74 1.75 1.78 1.96 2.09 2.11 1.99 2.05 2.07 2.07 2.10 2.10 2.02 1.96 1.90 1.85 2.05 2.14 2.15 2.36 2.37 1.85 1.74 1.47 1.52 1.77 1.92 2.16 2.31 2.24 2.21 2.17
1.25 1.13 1.02 0.97 0.98 0.95 1.05 1.29 1.46 1.65 1.80 1.89 1.91 2.00 2.16 2.23 2.15 2.13 2.04 2.09 2.16 2.26 2.21 2.14 2.02 1.94 1.96 1.97 1.95 2.10 2.35 2.06 1.67 1.58 1.56 1.54 1.89 2.05 2.21 2.26 2.22 2.13 2.11
1.73 1.40 1.23 1.12 1.14 1.19 1.13 1.28 1.60 1.80 1.91 1.99 2.24 2.47 2.60 2.54 2.36 2.50 2.32 2.50 2.55 2.59 2.57 2.62 2.52 2.35 2.22 2.02 2.18 2.47 2.17 1.77 1.84 1.84 1.79 1.81 1.97 2.16 2.38 2.33 2.26 2.20 2.15
1.97 1.55 1.41 1.25 1.20 1.25 1.40 1.74 1.97 1.85 2.02 2.30 2.63 2.80 2.99 2.93 2.86 2.50 2.77 3.10 3.30 3.52 3.46 3.36 3.19 2.83 2.31 2.05 2.64 2.88 1.95 1.73 1.86 1.97 1.95 2.00 2.18 2.45 2.58 2.40 2.26 2.18 2.13
1.80 1.60 1.53 1.55 1.58 1.47 1.65 1.92 2.15 2.18 2.36 2.51 2.63 2.82 3.01 2.72 2.67 2.79 3.09 3.45 3.66 3.81 3.65 3.65 3.59 3.09 2.72 2.60 2.83 2.77 2.11 1.99 1.97 1.96 2.17 2.30 2.36 2.60 2.86 2.67 2.47 2.37 2.26
2.30 2.06 1.92 1.96 1.95 1.92 1.90 2.08 2.21 2.24 2.33 2.47 2.65 2.64 2.78 2.93 3.01 3.19 3.53 3.50 3.65 3.76 4.08 3.77 3.86 3.56 3.17 2.91 2.88 2.73 2.34 2.31 2.31 2.37 2.66 2.47 2.34 2.69 3.09 3.03 2.81 2.59 2.40
2.88 2.86 2.60 2.37 2.25 2.30 2.45 2.44 2.31 2.41 2.51 2.60 2.80 2.76 2.77 3.09 3.27 3.38 3.48 3.64 3.39 3.42 3.83 4.01 3.79 3.89 3.81 3.48 3.22 2.94 2.81 2.63 2.55 2.57 2.69 2.70 2.57 2.68 3.02 3.19 3.03 2.90 2.66
3.03 3.15 2.93 2.79 2.69 2.75 3.00 3.06 2.88 2.67 2.87 2.91 2.90 2.84 2.91 3.19 3.58 3.76 3.68 3.78 3.56 3.34 3.53 3.76 3.78 4.42 4.24 3.99 3.46 3.12 3.03 2.97 2.80 2.74 2.80 2.92 2.70 2.52 2.68 3.13 3.30 3.19 3.03
3.34 3.27 3.24 3.23 3.17 3.31 3.44 3.36 3.12 3.03 2.91 2.95 3.03 3.11 3.12 3.15 3.54 3.77 3.97 3.92 3.69 3.45 3.63 3.76 3.99 4.29 4.05 3.89 3.59 3.34 3.17 3.08 2.87 2.78 2.98 3.17 2.90 2.77 2.71 2.88 3.21 3.41 3.49
3.68 3.68 3.69 3.52 3.62 3.81 3.88 3.74 3.54 3.42 3.24 3.02 2.95 3.15 3.24 3.32 3.55 3.77 3.74 3.65 3.74 3.66 3.85 4.12 4.23 4.28 4.20 4.05 3.82 3.48 3.25 3.26 2.79 2.65 2.70 2.81 2.92 2.69 2.86 3.13 3.34 3.40 3.64
4.19 4.37 4.40 4.33 4.24 4.21 4.18 4.08 4.12 4.08 3.85 3.49 3.31 3.34 3.39 3.28 3.34 3.60 3.62 3.70 3.78 3.79 3.82 3.52 4.08 4.10 4.17 4.06 3.49 3.31 3.01 3.02 2.90 2.54 2.49 2.34 2.49 2.56 2.58 2.73 3.01 3.12 3.63
4.48 4.99 4.97 4.83 4.86 4.91 4.87 4.56 4.56 4.34 4.07 3.91 3.79 3.87 3.65 3.46 3.37 3.60 3.60 3.71 3.73 3.84 3.88 3.82 4.09 4.05 3.87 3.85 3.16 3.02 2.88 2.61 2.55 2.52 2.31 2.23 2.32 2.19 2.31 2.56 2.87 2.62 3.10
4.75 5.24 5.48 5.54 5.46 5.22 4.92 4.56 4.36 4.30 4.25 4.06 3.84 3.64 3.52 3.44 3.49 3.83 3.72 4.04 3.92 3.72 3.68 3.76 4.02 3.91 3.63 3.67 3.71 3.21 2.62 2.29 2.33 2.22 2.29 2.38 2.23 2.22 2.44 2.80 2.92 2.74 2.50
4.35 4.82 5.00 4.78 4.75 4.63 4.41 4.35 4.33 4.52 4.23 3.98 3.82 3.65 3.38 3.35 3.44 3.45 3.80 3.74 3.75 3.85 3.73 3.72 3.95 3.76 3.33 3.48 3.79 3.79 3.07 2.82 2.33 1.86 2.10 2.22 2.29 2.53 2.60 2.61 2.93 3.06 2.78
3.32 3.60 3.82 3.99 3.95 3.87 3.88 3.88 3.97 4.20 4.04 3.87 3.74 3.64 3.26 3.08 3.08 3.22 3.35 3.48 3.79 3.66 3.70 3.77 3.70 3.63 3.35 3.30 3.49 3.83 3.40 2.93 2.41 1.87 1.81 2.09 2.46 2.66 2.62 2.69 2.79 2.97 3.05
2.96 3.17 3.25 3.31 3.43 3.45 3.55 3.50 3.39 3.32 3.31 3.31 3.37 3.32 3.28 3.11 3.02 3.07 3.15 3.28 3.45 3.28 3.37 3.05 3.17 3.47 3.60 3.31 3.42 3.33 3.24 3.11 2.98 2.41 2.03 2.03 2.31 2.48 2.67 2.65 2.76 2.91 3.16
2.37 2.61 2.75 2.85 2.97 3.13 3.20 3.19 3.20 3.01 3.02 3.11 3.16 3.19 3.16 3.10 3.04 3.02 3.02 3.05 3.04 2.87 2.95 2.91 3.15 3.16 3.18 3.17 3.25 3.32 3.41 3.32 3.10 2.92 2.58 2.45 2.37 2.15 2.24 2.44 2.67 2.81 3.03
2.11 2.31 2.42 2.55 2.60 2.72 2.79 2.92 3.06 3.04 2.95 2.94 2.95 2.98 2.97 2.95 2.84 2.78 2.74 2.78 2.77 2.75 2.80 2.87 3.01 2.92 2.96 3.11 3.16 3.18 3.33 3.31 3.33 3.32 2.80 2.59 2.41 1.98 1.96 1.97 2.18 2.43 2.82

GEFSSE_prec_meanprecacc_312.txt.gz
Total_Precipitation_Accumulation
2.52 2.70 3.07 2.46 1.97 1.75 1.66 1.71 1.76 1.61 1.56 1.59 1.67 1.71 1.74 1.83 1.90 2.05 2.15 2.17 2.31 2.63 2.92 3.15 3.24 3.30 3.39 3.41 3.24 3.05 3.01 3.18 3.26 3.07 2.91 2.69 2.49 2.62 2.84 2.96 2.82 2.05 2.08
2.07 2.32 2.61 2.18 1.76 1.59 1.58 1.72 1.72 1.63 1.52 1.53 1.53 1.56 1.68 1.83 1.86 2.00 2.09 2.28 2.51 2.74 2.89 3.03 3.04 3.03 3.08 2.99 2.85 2.66 2.73 3.12 3.48 3.28 3.02 2.64 2.60 2.64 2.82 2.84 2.79 2.10 2.09
1.49 1.81 1.91 1.90 1.65 1.54 1.53 1.65 1.57 1.49 1.51 1.62 1.64 1.72 1.81 1.95 1.94 1.97 2.09 2.36 2.62 2.79 2.87 2.91 2.87 2.84 2.78 2.72 2.64 2.47 2.76 3.21 3.42 3.42 3.36 2.41 2.29 2.73 2.87 2.75 2.37 2.00 1.98
1.09 1.35 1.43 1.57 1.54 1.44 1.30 1.39 1.48 1.38 1.41 1.55 1.81 2.01 2.12 2.24 2.21 2.22 2.35 2.52 2.73 2.73 2.74 2.72 2.70 2.62 2.58 2.56 2.48 2.56 2.72 3.12 3.36 3.62 3.10 2.06 1.74 2.38 2.75 2.46 2.18 2.08 2.01
1.00 1.09 1.30 1.28 1.22 1.29 1.28 1.34 1.46 1.49 1.47 1.48 1.74 2.04 2.29 2.48 2.51 2.58 2.69 2.82 2.90 2.71 2.58 2.57 2.57 2.35 2.36 2.39 2.49 2.69 2.80 3.24 3.63 3.38 2.46 2.13 2.06 2.32 2.43 2.44 2.37 2.34 2.19
0.85 0.90 1.01 1.20 1.17 1.21 1.23 1.23 1.26 1.39 1.54 1.67 1.85 2.08 2.30 2.57 2.75 2.92 2.91 2.95 2.92 2.69 2.61 2.55 2.46 2.29 2.33 2.43 2.67 2.73 2.83 3.33 3.34 2.35 2.03 1.98 1.99 2.31 2.29 2.53 2.56 2.51 2.39
0.72 0.85 0.94 1.10 1.16 1.17 1.13 1.18 1.23 1.32 1.58 1.78 1.81 1.90 2.10 2.34 2.70 2.84 2.81 2.81 2.66 2.53 2.45 2.47 2.46 2.32 2.30 2.42 2.75 2.72 2.85 3.09 2.50 1.81 1.96 2.06 1.86 1.98 2.18 2.51 2.60 2.52 2.27
0.76 0.73 0.92 1.08 1.13 1.13 1.07 1.13 1.21 1.39 1.60 1.81 1.82 1.85 1.96 2.16 2.41 2.45 2.44 2.41 2.31 2.36 2.37 2.43 2.44 2.27 2.16 2.43 2.61 2.59 2.69 2.54 1.90 1.66 1.72 1.69 1.63 1.82 2.14 2.40 2.44 2.45 2.23
0.97 0.87 0.94 0.98 0.99 1.05 1.14 1.18 1.34 1.56 1.75 1.82 1.81 1.85 2.01 2.13 2.16 2.08 2.13 2.16 2.17 2.21 2.23 2.21 2.14 2.07 2.06 2.28 2.34 2.34 2.54 2.50 1.96 1.81 1.52 1.57 1.84 1.99 2.24 2.40 2.36 2.33 2.26
1.28 1.16 1.06 1.04 1.07 1.03 1.13 1.35 1.55 1.73 1.89 1.97 1.98 2.07 2.21 2.27 2.19 2.20 2.11 2.16 2.24 2.34 2.33 2.34 2.26 2.14 2.14 2.19 2.11 2.24 2.50 2.19 1.77 1.65 1.61 1.58 1.95 2.13 2.31 2.38 2.38 2.29 2.21
1.75 1.45 1.29 1.16 1.19 1.29 1.26 1.36 1.70 1.90 2.01 2.08 2.33 2.55 2.66 2.59 2.41 2.55 2.37 2.57 2.61 2.66 2.67 2.84 2.79 2.54 2.36 2.22 2.32 2.60 2.30 1.86 1.92 1.90 1.84 1.84 2.02 2.24 2.48 2.43 2.36 2.32 2.23
2.01 1.61 1.47 1.30 1.26 1.34 1.48 1.81 2.07 1.94 2.11 2.37 2.70 2.87 3.07 3.00 2.92 2.54 2.80 3.15 3.36 3.60 3.55 3.51 3.35 2.97 2.43 2.19 2.75 2.99 2.04 1.79 1.91 2.02 1.99 2.04 2.24 2.51 2.65 2.46 2.31 2.24 2.18
1.84 1.66 1.62 1.64 1.70 1.58 1.74 1.98 2.21 2.24 2.42 2.58 2.70 2.89 3.09 2.82 2.75 2.84 3.14 3.50 3.74 3.89 3.75 3.78 3.76 3.22 2.82 2.68 2.92 2.86 2.18 2.04 2.02 2.00 2.20 2.35 2.45 2.70 2.95 2.72 2.51 2.41 2.31
2.33 2.11 2.00 2.08 2.08 2.04 1.99 2.14 2.25 2.28 2.38 2.53 2.71 2.71 2.86 3.03 3.11 3.26 3.60 3.56 3.71 3.83 4.17 3.88 4.01 3.67 3.26 2.99 2.96 2.80 2.40 2.35 2.35 2.41 2.71 2.54 2.46 2.81 3.18 3.09 2.86 2.63 2.45
2.90 2.90 2.67 2.46 2.33 2.37 2.52 2.49 2.34 2.46 2.58 2.67 2.86 2.82 2.84 3.16 3.35 3.45 3.54 3.69 3.43 3.47 3.90 4.09 3.88 3.98 3.91 3.59 3.30 3.00 2.86 2.67 2.59 2.62 2.75 2.80 2.70 2.78 3.10 3.25 3.09 2.96 2.72
3.04 3.17 2.97 2.83 2.72 2.77 3.05 3.10 2.93 2.76 3.00 3.00 2.96 2.88 2.96 3.25 3.64 3.80 3.73 3.84 3.62 3.40 3.61 3.84 3.86 4.48 4.30 4.10 3.59 3.25 3.15 3.04 2.87 2.80 2.87 3.05 2.83 2.63 2.77 3.23 3.38 3.27 3.12
3.35 3.28 3.27 3.26 3.19 3.33 3.47 3.39 3.15 3.10 3.01 3.05 3.09 3.15 3.17 3.20 3.60 3.83 4.02 3.98 3.74 3.50 3.69 3.85 4.08 4.38 4.15 3.98 3.70 3.49 3.35 3.24 3.00 2.89 3.11 3.32 3.03 2.87 2.80 2.97 3.29 3.49 3.57
3.69 3.70 3.72 3.55 3.64 3.83 3.91 3.77 3.59 3.48 3.31 3.09 3.01 3.22 3.31 3.38 3.60 3.82 3.79 3.70 3.78 3.69 3.89 4.19 4.33 4.40 4.31 4.14 3.89 3.54 3.33 3.36 2.92 2.80 2.87 2.98 3.07 2.81 2.97 3.23 3.43 3.49 3.72
4.20 4.38 4.44 4.37 4.27 4.24 4.22 4.12 4.16 4.14 3.91 3.56 3.39 3.45 3.51 3.38 3.41 3.66 3.67 3.76 3.82 3.82 3.86 3.57 4.15 4.20 4.32 4.18 3.57 3.37 3.07 3.07 2.97 2.65 2.64 2.49 2.63 2.69 2.71 2.84 3.13 3.24 3.74
4.48 5.00 5.01 4.88 4.90 4.96 4.91 4.60 4.60 4.39 4.12 3.97 3.89 4.00 3.76 3.53 3.40 3.64 3.65 3.77 3.79 3.88 3.92 3.86 4.14 4.12 3.99 3.97 3.23 3.10 2.96 2.70 2.63 2.58 2.37 2.32 2.41 2.29 2.41 2.65 2.97 2.75 3.23
4.76 5.25 5.51 5.59 5.51 5.27 4.95 4.59 4.39 4.34 4.30 4.11 3.88 3.69 3.57 3.47 3.52 3.87 3.75 4.09 3.97 3.77 3.74 3.83 4.10 3.99 3.73 3.78 3.80 3.30 2.72 2.39 2.43 2.30 2.37 2.45 2.29 2.30 2.54 2.91 3.03 2.85 2.62
4.36 4.83 5.02 4.82 4.81 4.67 4.45 4.38 4.36 4.56 4.27 4.02 3.85 3.68 3.41 3.37 3.46 3.47 3.85 3.80 3.83 3.97 3.88 3.86 4.06 3.86 3.44 3.59 3.92 3.91 3.20 2.95 2.46 1.98 2.21 2.32 2.39 2.62 2.69 2.71 3.04 3.17 2.88
3.32 3.61 3.83 4.02 4.01 3.94 3.94 3.92 4.01 4.23 4.07 3.92 3.77 3.67 3.29 3.11 3.11 3.26 3.42 3.58 3.93 3.80 3.82 3.89 3.82 3.75 3.48 3.43 3.62 3.99 3.56 3.09 2.58 2.05 1.95 2.21 2.56 2.77 2.71 2.79 2.89 3.07 3.14
2.96 3.18 3.27 3.35 3.47 3.53 3.64 3.55 3.43 3.35 3.36 3.36 3.42 3.36 3.33 3.17 3.06 3.12 3.25 3.42 3.59 3.39 3.44 3.12 3.25 3.55 3.70 3.42 3.51 3.45 3.38 3.26 3.15 2.59 2.18 2.14 2.42 2.59 2.76 2.73 2.84 2.98 3.23
2.38 2.63 2.78 2.90 3.00 3.20 3.29 3.25 3.24 3.06 3.08 3.17 3.21 3.23 3.21 3.16 3.08 3.06 3.08 3.14 3.16 2.99 3.05 2.98 3.20 3.22 3.24 3.24 3.34 3.41 3.50 3.44 3.24 3.07 2.70 2.56 2.48 2.25 2.34 2.52 2.73 2.86 3.08
2.11 2.31 2.43 2.56 2.61 2.78 2.89 2.99 3.11 3.09 3.01 3.00 3.01 3.02 3.02 3.01 2.91 2.84 2.79 2.83 2.84 2.82 2.87 2.92 3.05 2.96 3.01 3.16 3.22 3.25 3.41 3.41 3.43 3.43 2.91 2.68 2.49 2.05 2.03 2.03 2.24 2.48 2.87

GEFSSE_prec_meanprecacc_318.txt.gz
Total_Precipitation_Accumulation
2.69 2.82 3.16 2.53 2.04 1.82 1.71 1.77 1.87 1.71 1.65 1.68 1.75 1.78 1.80 1.87 1.95 2.11 2.20 2.21 2.35 2.68 2.99 3.23 3.32 3.40 3.51 3.57 3.38 3.15 3.11 3.28 3.37 3.18 3.01 2.76 2.54 2.66 2.89 3.03 2.91 2.13 2.15
2.21 2.42 2.68 2.23 1.80 1.64 1.63 1.79 1.80 1.72 1.64 1.64 1.64 1.67 1.78 1.90 1.94 2.07 2.14 2.34 2.59 2.84 2.97 3.11 3.11 3.13 3.20 3.12 2.95 2.76 2.84 3.24 3.61 3.40 3.11 2.71 2.65 2.67 2.88 2.92 2.88 2.18 2.14
1.57 1.90 2.01 1.95 1.68 1.57 1.57 1.70 1.64 1.57 1.61 1.72 1.75 1.81 1.91 2.05 2.05 2.04 2.15 2.42 2.70 2.91 3.00 3.00 2.94 2.91 2.87 2.82 2.73 2.56 2.87 3.34 3.63 3.62 3.52 2.50 2.35 2.78 2.94 2.82 2.43 2.05 2.02
1.14 1.42 1.52 1.65 1.57 1.47 1.35 1.45 1.53 1.44 1.47 1.63 1.90 2.10 2.19 2.34 2.32 2.34 2.44 2.59 2.79 2.78 2.87 2.88 2.82 2.69 2.68 2.67 2.59 2.66 2.83 3.27 3.66 3.98 3.38 2.22 1.85 2.47 2.84 2.54 2.24 2.14 2.06
1.04 1.15 1.38 1.34 1.27 1.34 1.32 1.39 1.51 1.54 1.53 1.56 1.83 2.15 2.39 2.59 2.61 2.68 2.80 2.90 2.96 2.77 2.64 2.67 2.70 2.46 2.48 2.51 2.60 2.80 2.92 3.42 3.95 3.76 2.71 2.32 2.22 2.44 2.53 2.53 2.44 2.41 2.25
0.88 0.94 1.07 1.26 1.24 1.28 1.30 1.31 1.32 1.44 1.60 1.73 1.95 2.24 2.46 2.67 2.82 3.00 3.00 3.04 3.00 2.77 2.68 2.64 2.58 2.42 2.48 2.57 2.76 2.83 2.94 3.48 3.55 2.57 2.17 2.09 2.11 2.40 2.38 2.61 2.63 2.59 2.46
0.75 0.89 0.99 1.18 1.26 1.28 1.23 1.25 1.28 1.36 1.63 1.83 1.91 2.01 2.21 2.43 2.78 2.91 2.89 2.89 2.75 2.62 2.55 2.57 2.57 2.44 2.41 2.54 2.85 2.82 2.95 3.23 2.66 1.97 2.06 2.17 1.97 2.06 2.26 2.60 2.68 2.59 2.34
0.79 0.76 0.96 1.14 1.23 1.24 1.18 1.21 1.29 1.47 1.68 1.88 1.87 1.89 2.00 2.24 2.51 2.54 2.53 2.51 2.42 2.47 2.48 2.53 2.54 2.39 2.28 2.56 2.73 2.71 2.83 2.71 2.03 1.75 1.80 1.79 1.75 1.91 2.23 2.48 2.52 2.52 2.30
1.00 0.90 0.96 1.02 1.05 1.13 1.23 1.28 1.46 1.68 1.84 1.88 1.85 1.89 2.04 2.18 2.24 2.17 2.21 2.25 2.26 2.30 2.36 2.38 2.30 2.21 2.21 2.41 2.47 2.48 2.68 2.70 2.10 1.91 1.61 1.70 1.98 2.10 2.34 2.48 2.44 2.42 2.35
1.30 1.19 1.09 1.10 1.12 1.07 1.18 1.41 1.61 1.81 1.96 2.02 2.02 2.11 2.25 2.32 2.23 2.28 2.20 2.23 2.29 2.41 2.49 2.57 2.48 2.35 2.31 2.34 2.24 2.37 2.66 2.38 1.91 1.77 1.71 1.64 2.01 2.21 2.40 2.46 2.46 2.37 2.32
1.79 1.52 1.36 1.21 1.23 1.34 1.30 1.39 1.77 1.98 2.10 2.15 2.39 2.61 2.73 2.67 2.46 2.61 2.44 2.64 2.66 2.72 2.79 2.95 2.88 2.63 2.48 2.38 2.45 2.71 2.45 2.00 2.04 2.00 1.92 1.90 2.06 2.29 2.56 2.50 2.43 2.42 2.35
2.06 1.66 1.54 1.35 1.30 1.38 1.50 1.84 2.14 2.04 2.19 2.45 2.77 2.95 3.16 3.08 3.01 2.60 2.86 3.20 3.41 3.66 3.61 3.57 3.43 3.07 2.55 2.36 2.87 3.11 2.15 1.90 2.02 2.10 2.06 2.09 2.28 2.55 2.72 2.53 2.39 2.36 2.30
1.91 1.71 1.67 1.69 1.76 1.64 1.77 2.01 2.26 2.31 2.49 2.64 2.76 2.96 3.17 2.91 2.84 2.93 3.23 3.57 3.80 3.95 3.83 3.85 3.85 3.32 2.91 2.80 3.02 2.97 2.28 2.12 2.10 2.06 2.27 2.40 2.50 2.75 3.04 2.80 2.59 2.52 2.41
2.41 2.19 2.08 2.13 2.14 2.10 2.05 2.19 2.29 2.32 2.43 2.59 2.78 2.78 2.93 3.12 3.20 3.33 3.70 3.66 3.79 3.91 4.25 3.95 4.08 3.76 3.33 3.05 3.04 2.89 2.48 2.40 2.41 2.48 2.78 2.59 2.52 2.88 3.27 3.18 2.93 2.70 2.51
2.99 3.02 2.78 2.51 2.38 2.43 2.60 2.56 2.39 2.51 2.63 2.74 2.95 2.92 2.92 3.24 3.42 3.53 3.64 3.81 3.52 3.55 3.97 4.15 3.92 4.04 4.00 3.70 3.40 3.08 2.95 2.76 2.68 2.71 2.84 2.86 2.76 2.87 3.18 3.33 3.15 3.01 2.79
3.15 3.29 3.04 2.86 2.75 2.82 3.11 3.18 3.00 2.82 3.06 3.07 3.05 3.00 3.08 3.35 3.73 3.91 3.83 3.94 3.71 3.47 3.66 3.89 3.89 4.54 4.38 4.21 3.72 3.35 3.24 3.15 2.94 2.88 2.96 3.17 2.96 2.73 2.87 3.31 3.44 3.33 3.19
3.44 3.35 3.30 3.28 3.21 3.37 3.53 3.45 3.22 3.15 3.06 3.12 3.18 3.25 3.27 3.29 3.70 3.92 4.11 4.07 3.81 3.56 3.76 3.92 4.14 4.45 4.24 4.07 3.81 3.60 3.44 3.34 3.09 2.97 3.20 3.44 3.15 2.96 2.89 3.06 3.37 3.57 3.66
3.75 3.73 3.74 3.56 3.66 3.86 3.96 3.83 3.65 3.52 3.36 3.14 3.08 3.29 3.38 3.50 3.73 3.94 3.87 3.77 3.85 3.75 3.97 4.27 4.40 4.49 4.41 4.22 3.98 3.62 3.40 3.44 3.00 2.91 2.99 3.08 3.15 2.89 3.07 3.32 3.52 3.58 3.81
4.23 4.40 4.45 4.38 4.28 4.27 4.27 4.18 4.22 4.19 3.97 3.61 3.46 3.51 3.60 3.52 3.53 3.75 3.73 3.83 3.89 3.89 3.94 3.63 4.22 4.28 4.41 4.28 3.65 3.44 3.13 3.16 3.07 2.75 2.75 2.59 2.71 2.77 2.80 2.92 3.21 3.33 3.82
4.49 5.02 5.03 4.90 4.93 4.99 4.96 4.67 4.68 4.45 4.17 4.02 3.95 4.07 3.83 3.61 3.47 3.70 3.70 3.83 3.85 3.95 3.99 3.94 4.25 4.23 4.09 4.07 3.31 3.18 3.05 2.80 2.73 2.68 2.47 2.43 2.52 2.39 2.49 2.72 3.06 2.84 3.32
4.76 5.26 5.53 5.61 5.55 5.32 5.01 4.66 4.46 4.42 4.37 4.16 3.94 3.75 3.62 3.50 3.55 3.91 3.80 4.14 4.04 3.84 3.80 3.89 4.18 4.11 3.83 3.89 3.90 3.41 2.80 2.47 2.51 2.40 2.47 2.56 2.39 2.43 2.68 3.04 3.15 2.95 2.73
4.37 4.84 5.03 4.85 4.85 4.72 4.50 4.44 4.41 4.63 4.34 4.08 3.91 3.75 3.44 3.40 3.49 3.51 3.90 3.84 3.89 4.04 3.94 3.90 4.12 3.95 3.54 3.71 4.02 4.00 3.28 3.05 2.57 2.07 2.32 2.45 2.52 2.76 2.83 2.85 3.16 3.27 2.96
3.33 3.62 3.84 4.04 4.06 3.98 3.98 3.96 4.05 4.30 4.13 3.99 3.84 3.73 3.34 3.17 3.16 3.32 3.47 3.65 3.99 3.88 3.90 3.95 3.87 3.80 3.55 3.53 3.72 4.07 3.65 3.20 2.69 2.15 2.06 2.33 2.68 2.88 2.81 2.88 2.96 3.13 3.20
2.97 3.18 3.28 3.37 3.52 3.58 3.68 3.60 3.48 3.41 3.41 3.41 3.46 3.41 3.39 3.24 3.12 3.16 3.29 3.47 3.64 3.44 3.50 3.18 3.30 3.60 3.75 3.48 3.59 3.54 3.46 3.36 3.26 2.71 2.30 2.29 2.56 2.74 2.90 2.82 2.91 3.06 3.31
2.38 2.63 2.79 2.92 3.05 3.27 3.37 3.31 3.29 3.11 3.11 3.21 3.25 3.27 3.25 3.21 3.13 3.08 3.10 3.19 3.21 3.05 3.11 3.04 3.26 3.27 3.28 3.29 3.40 3.48 3.58 3.53 3.33 3.17 2.81 2.69 2.60 2.36 2.43 2.58 2.78 2.93 3.16
2.12 2.31 2.43 2.57 2.63 2.83 2.98 3.08 3.17 3.13 3.05 3.04 3.05 3.06 3.06 3.08 2.97 2.88 2.82 2.87 2.89 2.87 2.92 2.96 3.10 3.00 3.05 3.21 3.27 3.31 3.49 3.50 3.53 3.53 3.01 2.78 2.57 2.10 2.07 2.07 2.29 2.54 2.94

GEFSSE_prec_meanprecacc_324.txt.gz
Total_Precipitation_Accumulation
2.74 2.85 3.21 2.57 2.08 1.85 1.74 1.80 1.91 1.77 1.70 1.73 1.81 1.83 1.86 1.93 1.98 2.14 2.23 2.25 2.39 2.73 3.03 3.29 3.39 3.47 3.61 3.70 3.47 3.22 3.18 3.36 3.45 3.27 3.11 2.86 2.60 2.70 2.93 3.06 2.94 2.15 2.18
2.26 2.45 2.73 2.27 1.84 1.67 1.66 1.82 1.85 1.77 1.70 1.71 1.70 1.73 1.84 1.94 1.97 2.10 2.16 2.38 2.64 2.90 3.03 3.18 3.20 3.22 3.31 3.23 3.03 2.84 2.90 3.30 3.69 3.50 3.20 2.79 2.73 2.72 2.91 2.96 2.91 2.20 2.16
1.61 1.94 2.05 1.99 1.72 1.60 1.60 1.73 1.66 1.60 1.65 1.79 1.81 1.86 1.95 2.09 2.09 2.08 2.17 2.45 2.74 2.95 3.06 3.07 3.03 3.01 2.95 2.90 2.81 2.64 2.93 3.40 3.72 3.73 3.62 2.56 2.43 2.86 2.99 2.87 2.47 2.08 2.04
1.18 1.46 1.56 1.69 1.60 1.50 1.37 1.47 1.55 1.46 1.51 1.67 1.94 2.15 2.24 2.39 2.37 2.38 2.47 2.61 2.81 2.82 2.92 2.95 2.90 2.77 2.76 2.73 2.63 2.71 2.89 3.34 3.77 4.10 3.47 2.32 1.95 2.54 2.89 2.59 2.28 2.17 2.09
1.08 1.20 1.43 1.39 1.30 1.37 1.34 1.42 1.54 1.57 1.58 1.60 1.87 2.18 2.42 2.62 2.66 2.73 2.83 2.93 2.99 2.80 2.68 2.74 2.77 2.54 2.56 2.57 2.63 2.84 2.97 3.49 4.07 3.87 2.78 2.39 2.28 2.50 2.58 2.57 2.47 2.44 2.29
0.92 0.98 1.13 1.32 1.29 1.33 1.35 1.36 1.37 1.49 1.65 1.78 1.99 2.27 2.50 2.69 2.85 3.03 3.02 3.06 3.02 2.79 2.72 2.69 2.64 2.50 2.55 2.62 2.80 2.86 2.99 3.57 3.67 2.65 2.25 2.16 2.17 2.46 2.43 2.66 2.67 2.62 2.50
0.77 0.92 1.06 1.25 1.31 1.33 1.28 1.32 1.35 1.42 1.69 1.90 1.97 2.08 2.26 2.45 2.80 2.93 2.91 2.91 2.77 2.66 2.60 2.63 2.64 2.52 2.49 2.59 2.89 2.86 3.01 3.32 2.77 2.08 2.13 2.21 2.01 2.11 2.33 2.68 2.75 2.64 2.38
0.80 0.78 0.99 1.20 1.29 1.29 1.24 1.29 1.37 1.56 1.78 1.96 1.94 1.95 2.05 2.28 2.54 2.57 2.55 2.54 2.46 2.52 2.56 2.61 2.61 2.45 2.35 2.61 2.78 2.77 2.90 2.80 2.11 1.86 1.87 1.85 1.81 1.97 2.31 2.57 2.59 2.58 2.35
1.00 0.91 0.98 1.05 1.08 1.17 1.30 1.37 1.60 1.82 1.93 1.96 1.90 1.92 2.09 2.23 2.28 2.21 2.25 2.28 2.29 2.34 2.42 2.48 2.40 2.26 2.26 2.46 2.52 2.54 2.77 2.82 2.20 2.00 1.70 1.79 2.06 2.17 2.43 2.57 2.51 2.48 2.41
1.31 1.21 1.10 1.11 1.12 1.08 1.22 1.50 1.74 1.88 2.01 2.06 2.06 2.14 2.30 2.37 2.28 2.32 2.25 2.28 2.33 2.44 2.53 2.65 2.60 2.42 2.36 2.38 2.28 2.44 2.76 2.52 2.03 1.88 1.82 1.73 2.10 2.28 2.50 2.57 2.54 2.44 2.39
1.80 1.54 1.40 1.23 1.25 1.36 1.32 1.41 1.82 2.03 2.15 2.20 2.43 2.64 2.77 2.69 2.48 2.63 2.48 2.72 2.73 2.76 2.82 2.99 2.95 2.69 2.51 2.42 2.51 2.81 2.58 2.13 2.13 2.08 2.00 1.96 2.14 2.38 2.68 2.65 2.56 2.53 2.44
2.08 1.69 1.58 1.40 1.35 1.42 1.53 1.86 2.16 2.05 2.21 2.47 2.80 2.97 3.19 3.12 3.04 2.63 2.91 3.26 3.48 3.73 3.67 3.62 3.47 3.11 2.58 2.39 2.92 3.23 2.25 1.97 2.09 2.17 2.11 2.14 2.39 2.68 2.83 2.67 2.52 2.47 2.39
1.94 1.76 1.72 1.74 1.80 1.67 1.79 2.04 2.29 2.34 2.52 2.68 2.79 2.99 3.20 2.94 2.87 2.96 3.29 3.62 3.87 4.03 3.91 3.93 3.91 3.36 2.94 2.83 3.06 3.02 2.33 2.17 2.17 2.14 2.35 2.48 2.58 2.81 3.11 2.92 2.74 2.65 2.49
2.43 2.22 2.10 2.15 2.16 2.12 2.07 2.21 2.32 2.37 2.51 2.66 2.83 2.83 2.97 3.16 3.23 3.37 3.75 3.71 3.83 3.96 4.32 4.00 4.14 3.80 3.36 3.09 3.08 2.93 2.53 2.45 2.46 2.58 2.95 2.75 2.61 2.97 3.36 3.29 3.06 2.79 2.58
3.00 3.03 2.79 2.52 2.39 2.45 2.62 2.58 2.40 2.54 2.69 2.79 3.00 2.97 2.97 3.29 3.48 3.58 3.70 3.86 3.56 3.60 4.05 4.19 3.95 4.08 4.04 3.75 3.46 3.15 3.01 2.81 2.73 2.81 3.00 2.99 2.89 3.01 3.32 3.47 3.26 3.07 2.83
3.18 3.31 3.06 2.88 2.77 2.84 3.13 3.20 3.02 2.85 3.10 3.12 3.10 3.04 3.13 3.40 3.78 3.98 3.91 4.00 3.74 3.50 3.69 3.91 3.92 4.57 4.43 4.27 3.79 3.42 3.29 3.19 2.99 2.95 3.03 3.25 3.12 2.91 3.02 3.43 3.53 3.39 3.25
3.48 3.37 3.32 3.29 3.23 3.39 3.54 3.48 3.26 3.19 3.09 3.16 3.23 3.30 3.30 3.31 3.74 3.99 4.18 4.14 3.86 3.60 3.81 3.96 4.18 4.50 4.28 4.14 3.89 3.66 3.48 3.38 3.15 3.05 3.30 3.53 3.30 3.14 3.01 3.15 3.45 3.65 3.74
3.78 3.74 3.75 3.58 3.68 3.88 3.98 3.86 3.69 3.56 3.39 3.18 3.12 3.33 3.41 3.52 3.76 3.99 3.92 3.82 3.91 3.81 4.02 4.31 4.46 4.55 4.47 4.28 4.05 3.71 3.51 3.56 3.14 3.02 3.08 3.17 3.26 2.98 3.14 3.41 3.61 3.68 3.92
4.26 4.41 4.46 4.40 4.30 4.29 4.30 4.20 4.24 4.22 4.00 3.65 3.49 3.55 3.63 3.55 3.56 3.78 3.77 3.87 3.93 3.92 3.97 3.66 4.27 4.32 4.45 4.32 3.72 3.56 3.28 3.29 3.16 2.82 2.81 2.67 2.81 2.86 2.89 3.01 3.31 3.42 3.92
4.51 5.03 5.04 4.91 4.93 5.00 4.98 4.68 4.70 4.49 4.22 4.06 3.99 4.11 3.89 3.68 3.51 3.72 3.74 3.88 3.88 3.97 4.01 3.97 4.29 4.27 4.13 4.10 3.35 3.24 3.14 2.86 2.78 2.74 2.53 2.51 2.62 2.49 2.60 2.84 3.17 2.96 3.46
4.78 5.27 5.55 5.63 5.56 5.33 5.02 4.67 4.48 4.45 4.40 4.19 3.96 3.79 3.68 3.55 3.58 3.94 3.84 4.19 4.07 3.87 3.82 3.91 4.20 4.14 3.87 3.92 3.93 3.45 2.87 2.54 2.57 2.47 2.55 2.65 2.48 2.54 2.84 3.22 3.35 3.14 2.87
4.38 4.84 5.04 4.86 4.87 4.74 4.51 4.44 4.42 4.65 4.37 4.11 3.94 3.77 3.48 3.44 3.54 3.56 3.94 3.89 3.93 4.07 3.97 3.92 4.14 3.98 3.58 3.74 4.05 4.03 3.32 3.10 2.62 2.12 2.39 2.57 2.63 2.86 2.95 3.00 3.35 3.47 3.15
3.34 3.63 3.85 4.05 4.06 3.99 3.99 3.97 4.06 4.32 4.17 4.03 3.87 3.75 3.37 3.20 3.20 3.35 3.51 3.69 4.03 3.91 3.91 3.96 3.89 3.82 3.59 3.56 3.75 4.11 3.68 3.23 2.72 2.19 2.09 2.38 2.76 3.00 2.93 3.00 3.11 3.28 3.34
2.98 3.19 3.29 3.38 3.53 3.59 3.70 3.61 3.49 3.42 3.43 3.44 3.49 3.44 3.42 3.27 3.15 3.18 3.31 3.50 3.68 3.46 3.52 3.20 3.32 3.61 3.77 3.52 3.63 3.56 3.49 3.40 3.29 2.74 2.34 2.33 2.61 2.79 2.97 2.94 3.06 3.19 3.41
2.40 2.64 2.79 2.92 3.06 3.28 3.39 3.33 3.31 3.12 3.14 3.24 3.28 3.30 3.29 3.23 3.15 3.11 3.12 3.21 3.23 3.07 3.13 3.05 3.29 3.28 3.30 3.31 3.43 3.50 3.60 3.56 3.36 3.19 2.82 2.73 2.64 2.39 2.48 2.68 2.89 3.03 3.23
2.13 2.33 2.45 2.58 2.65 2.85 3.01 3.10 3.19 3.15 3.07 3.06 3.08 3.08 3.08 3.09 2.99 2.91 2.84 2.89 2.90 2.89 2.93 2.98 3.13 3.03 3.07 3.23 3.29 3.33 3.51 3.52 3.56 3.55 3.03 2.80 2.59 2.13 2.12 2.13 2.36 2.61 3.00

GEFSSE_prec_meanprecacc_330.txt.gz
Total_Precipitation_Accumulation
2.76 2.88 3.27 2.63 2.14 1.89 1.78 1.83 1.96 1.82 1.75 1.79 1.89 1.94 1.95 1.97 2.03 2.19 2.28 2.29 2.43 2.76 3.08 3.36 3.50 3.58 3.74 3.83 3.55 3.28 3.25 3.44 3.53 3.36 3.21 2.98 2.75 2.79 2.99 3.14 2.99 2.18 2.21
2.28 2.49 2.80 2.33 1.90 1.71 1.69 1.86 1.89 1.81 1.74 1.78 1.78 1.82 1.92 1.99 2.02 2.14 2.20 2.41 2.68 2.94 3.07 3.25 3.28 3.29 3.39 3.32 3.10 2.90 2.95 3.37 3.74 3.56 3.28 2.89 2.84 2.83 2.99 3.03 2.96 2.24 2.21
1.64 1.98 2.10 2.05 1.77 1.64 1.63 1.77 1.70 1.63 1.69 1.83 1.86 1.95 2.04 2.16 2.16 2.14 2.21 2.48 2.77 2.99 3.11 3.13 3.12 3.10 3.06 2.99 2.89 2.71 2.99 3.47 3.78 3.80 3.70 2.62 2.50 2.97 3.11 2.98 2.56 2.14 2.10
1.22 1.49 1.59 1.73 1.65 1.53 1.39 1.50 1.58 1.49 1.55 1.71 2.01 2.24 2.31 2.44 2.43 2.43 2.51 2.65 2.85 2.86 2.98 3.05 3.02 2.87 2.84 2.81 2.71 2.78 2.95 3.41 3.85 4.18 3.53 2.35 1.99 2.62 3.03 2.77 2.40 2.24 2.14
1.12 1.24 1.47 1.43 1.34 1.40 1.36 1.44 1.56 1.60 1.60 1.62 1.90 2.22 2.46 2.67 2.70 2.77 2.87 2.97 3.04 2.85 2.76 2.83 2.85 2.60 2.63 2.65 2.70 2.90 3.03 3.58 4.19 3.99 2.84 2.43 2.32 2.57 2.69 2.74 2.58 2.51 2.34
0.95 1.02 1.17 1.37 1.34 1.37 1.38 1.40 1.40 1.52 1.67 1.80 2.03 2.30 2.52 2.72 2.89 3.06 3.06 3.11 3.08 2.86 2.78 2.76 2.69 2.56 2.62 2.70 2.87 2.94 3.06 3.67 3.81 2.80 2.34 2.23 2.23 2.55 2.56 2.80 2.76 2.69 2.57
0.80 0.95 1.10 1.31 1.37 1.39 1.33 1.37 1.41 1.47 1.73 1.94 2.01 2.11 2.29 2.49 2.84 2.96 2.93 2.95 2.83 2.71 2.64 2.67 2.68 2.56 2.56 2.68 2.99 2.96 3.10 3.43 2.88 2.20 2.22 2.27 2.07 2.19 2.46 2.83 2.86 2.74 2.46
0.82 0.81 1.03 1.26 1.35 1.35 1.30 1.38 1.47 1.64 1.85 2.02 1.98 1.99 2.08 2.32 2.58 2.60 2.58 2.59 2.52 2.57 2.59 2.64 2.64 2.49 2.40 2.67 2.86 2.87 3.00 2.92 2.21 1.94 1.96 1.91 1.87 2.06 2.45 2.72 2.74 2.71 2.47
1.03 0.94 1.02 1.10 1.15 1.23 1.35 1.45 1.70 1.90 2.01 2.02 1.95 1.96 2.13 2.27 2.31 2.25 2.30 2.34 2.35 2.39 2.46 2.52 2.45 2.34 2.31 2.52 2.59 2.63 2.87 2.94 2.29 2.07 1.77 1.87 2.14 2.27 2.58 2.73 2.66 2.63 2.56
1.34 1.26 1.16 1.17 1.18 1.12 1.27 1.59 1.84 1.98 2.10 2.12 2.11 2.19 2.35 2.43 2.33 2.37 2.30 2.34 2.39 2.49 2.57 2.70 2.68 2.50 2.42 2.45 2.36 2.51 2.83 2.61 2.09 1.94 1.89 1.80 2.18 2.39 2.63 2.71 2.68 2.57 2.53
1.85 1.59 1.45 1.27 1.28 1.38 1.35 1.47 1.92 2.16 2.24 2.27 2.49 2.71 2.84 2.74 2.51 2.66 2.52 2.78 2.81 2.84 2.89 3.04 3.00 2.73 2.58 2.50 2.60 2.89 2.65 2.18 2.16 2.11 2.04 2.01 2.22 2.48 2.80 2.77 2.69 2.67 2.57
2.11 1.73 1.61 1.42 1.38 1.44 1.55 1.90 2.24 2.14 2.29 2.54 2.86 3.03 3.26 3.17 3.09 2.66 2.95 3.32 3.57 3.82 3.76 3.70 3.54 3.17 2.65 2.45 3.02 3.35 2.31 2.02 2.14 2.20 2.15 2.20 2.47 2.77 2.92 2.76 2.64 2.62 2.53
1.96 1.78 1.75 1.76 1.82 1.70 1.82 2.08 2.33 2.38 2.58 2.74 2.84 3.04 3.24 2.97 2.89 3.00 3.32 3.65 3.93 4.11 3.99 4.02 3.99 3.42 3.01 2.90 3.13 3.09 2.36 2.21 2.21 2.18 2.39 2.54 2.64 2.87 3.19 3.03 2.87 2.79 2.65
2.45 2.24 2.12 2.17 2.17 2.15 2.09 2.23 2.34 2.39 2.57 2.73 2.87 2.86 3.00 3.18 3.25 3.39 3.76 3.74 3.87 4.01 4.37 4.05 4.19 3.87 3.46 3.16 3.13 2.98 2.58 2.49 2.50 2.62 2.99 2.81 2.66 3.01 3.43 3.40 3.23 2.99 2.75
3.02 3.05 2.80 2.53 2.41 2.47 2.64 2.60 2.43 2.56 2.71 2.82 3.03 3.00 2.99 3.31 3.50 3.60 3.73 3.91 3.62 3.67 4.11 4.25 4.02 4.14 4.12 3.82 3.52 3.20 3.07 2.86 2.78 2.85 3.04 3.06 2.96 3.08 3.39 3.58 3.42 3.29 3.02
3.19 3.32 3.06 2.89 2.79 2.86 3.15 3.22 3.04 2.87 3.13 3.15 3.12 3.06 3.15 3.41 3.80 4.00 3.95 4.06 3.82 3.58 3.77 4.01 4.00 4.63 4.47 4.32 3.84 3.48 3.36 3.26 3.07 3.01 3.10 3.33 3.22 3.01 3.10 3.51 3.65 3.59 3.44
3.49 3.39 3.33 3.30 3.24 3.42 3.56 3.50 3.27 3.21 3.12 3.19 3.25 3.31 3.31 3.32 3.75 4.01 4.21 4.18 3.92 3.67 3.90 4.06 4.26 4.54 4.31 4.17 3.93 3.71 3.56 3.48 3.25 3.15 3.42 3.65 3.41 3.25 3.15 3.28 3.59 3.79 3.88
3.79 3.76 3.77 3.59 3.69 3.90 4.00 3.87 3.70 3.58 3.42 3.21 3.15 3.35 3.42 3.53 3.78 4.01 3.95 3.85 3.94 3.88 4.12 4.37 4.49 4.58 4.49 4.30 4.08 3.76 3.59 3.65 3.23 3.11 3.16 3.24 3.34 3.07 3.25 3.52 3.73 3.80 4.05
4.27 4.42 4.47 4.41 4.31 4.30 4.31 4.21 4.25 4.25 4.03 3.68 3.53 3.57 3.64 3.57 3.58 3.79 3.79 3.90 3.97 3.97 4.02 3.69 4.30 4.36 4.48 4.35 3.76 3.60 3.32 3.33 3.21 2.86 2.85 2.72 2.88 2.96 2.99 3.11 3.42 3.53 4.03
4.51 5.04 5.05 4.92 4.94 5.02 5.00 4.70 4.72 4.52 4.27 4.10 4.01 4.12 3.90 3.69 3.52 3.74 3.75 3.90 3.91 4.00 4.04 4.00 4.32 4.30 4.16 4.13 3.37 3.26 3.16 2.89 2.81 2.76 2.56 2.57 2.68 2.57 2.69 2.92 3.24 3.02 3.53
4.78 5.28 5.55 5.64 5.57 5.34 5.04 4.69 4.51 4.51 4.49 4.23 3.98 3.80 3.69 3.55 3.59 3.96 3.85 4.21 4.10 3.89 3.85 3.93 4.22 4.16 3.88 3.94 3.95 3.47 2.90 2.58 2.60 2.49 2.58 2.69 2.52 2.58 2.89 3.28 3.41 3.20 2.93
4.39 4.85 5.05 4.87 4.88 4.74 4.53 4.46 4.45 4.70 4.41 4.13 3.95 3.78 3.49 3.45 3.55 3.56 3.95 3.92 3.96 4.09 3.99 3.94 4.15 3.99 3.59 3.77 4.07 4.04 3.35 3.14 2.65 2.14 2.41 2.59 2.66 2.89 2.98 3.03 3.39 3.52 3.19
3.34 3.64 3.85 4.06 4.08 4.01 4.02 3.99 4.09 4.34 4.19 4.04 3.88 3.77 3.38 3.21 3.20 3.36 3.51 3.70 4.05 3.92 3.92 3.98 3.90 3.83 3.60 3.58 3.77 4.12 3.70 3.27 2.76 2.22 2.12 2.40 2.77 3.02 2.95 3.02 3.13 3.31 3.37
2.98 3.20 3.29 3.39 3.55 3.62 3.74 3.65 3.51 3.43 3.45 3.45 3.50 3.46 3.44 3.28 3.16 3.19 3.32 3.51 3.69 3.47 3.52 3.21 3.33 3.62 3.79 3.54 3.65 3.57 3.50 3.43 3.34 2.77 2.36 2.34 2.62 2.80 2.99 2.96 3.08 3.22 3.45
2.40 2.64 2.80 2.94 3.09 3.33 3.46 3.40 3.35 3.15 3.16 3.25 3.30 3.32 3.31 3.25 3.17 3.12 3.14 3.22 3.24 3.07 3.14 3.07 3.30 3.30 3.31 3.33 3.44 3.51 3.61 3.59 3.40 3.21 2.84 2.74 2.64 2.40 2.49 2.70 2.92 3.07 3.28
2.14 2.34 2.46 2.60 2.71 2.92 3.08 3.16 3.24 3.20 3.11 3.09 3.10 3.11 3.10 3.11 3.01 2.93 2.86 2.90 2.92 2.90 2.95 3.00 3.15 3.05 3.08 3.24 3.31 3.35 3.53 3.55 3.59 3.57 3.06 2.82 2.60 2.13 2.13 2.14 2.38 2.68 3.08